Find Starlink 31598

NORAD ID: 59263 Int'l Des: 2024-050 Owner: SPXS Country: US Constellation: starlink operational
LEOCIRCULAR

当前视图

正在加载3D地球...

About Starlink 31598

Starlink 31598 (NORAD 59263) is a starlink constellation satellite (v2 mini) launched Mar 19, 2024 by SPXS of US. It operates in LEO, CIRCULAR orbit with a mass of 730.00 kg.

即将过境

Passes for default location (London). Set your location on the main map for personalized predictions.

高度历史

Loading altitude history...

两行轨道根数

1 59263U 24050K 26237.38493448 .00000988 00000-0 40384-4 0 9997
2 59263 53.1594 115.4830 0001458 94.6689 265.4480 15.34389387136400
Epoch: Aug 25, 2026 • Age: 11 hours

当前状态

高度 466.6 km
远地点 / 近地点 N/A
速度 7.64 km/s
星下点 45.09°N, 119.19°W
发射日期 Mar 19, 2024
运行时间 2.4 years
类型 internet

技术详情

分类 Payload
质量 730.00 kg
干质量 700.00 kg
总质量 730.00 kg
长度 0.30 m
直径 4.10 m
跨度 29.00 m
形状 Box + pan
制造商 SPXS
平台类型 Starlink V2M
阶段状态 In Orbit
所有者/国家 SPXS/US

Most Searched